Kosmos-2478

operational
NORAD ID: 37938 Int'l Des: 2011-071 Owner: KVR/IACG Country: RU Constellation: GLONASS
MEOCIRCULAR

Kosmos-2478について

説明を読み込み中...

リアルタイム位置

3D地球を読み込み中...

次回通過

高度履歴

Altitude vs Time

uPlot chart will show altitude changes over time

軌道要素

1 37938U 11071A 25298.93065632 -.00000030 00000-0 00000-0 0 9994
2 37938 65.5971 322.7668 0018297 222.7750 314.2688 2.13015659108150
Epoch: Oct 25, 2025 • Age: 10 hours

現在のステータス

高度 19144.5 km
速度 3.95 km/s
衛星直下点 44.40°N, 40.53°W
打ち上げ日 Nov 28, 2011
運用期間 13.9 years
タイプ other

技術仕様

分類 Payload
質量 1450.00 kg
乾燥質量 1200.00 kg
総質量 1450.00 kg
長さ 4.00 m
直径 1.50 m
スパン 7.80 m
形状 Cyl + Ant + 2 Pan
製造者 RESH
バスタイプ Uragan
フェーズステータス In Orbit
所有者/国 KVR/IACG/RU

大規模コンステレーション

Loading constellations...